Regional Weather Roundup
Issued by NWS Green Bay, WI

Home | Current Version | Previous Version | Graphics & Text | Print | Product List | Glossary Off
Versions: 1 2 3 4 5 6 7 8 9 10 11 12 13 14 15 16 17 18 19 20 21 22 23 24 25 26 27 28 29 30 31 32 33 34 35 36 37 38 39 40 41 42 43 44 45 46 47 48 49 50

000
ASUS43 KGRB 252111
RWRGRB

NORTH-CENTRAL AND NORTHEAST WISCONSIN REGIONAL WEATHER ROUNDUP
NATIONAL WEATHER SERVICE GREEN BAY WI
400 PM CDT MON MAY 25 2015

WIZ005-009-010>012-018-019-252200-
NORTH CENTRAL WISCONSIN

CITY           SKY/WX    TMP DP  RH WIND       PRES   REMARKS
IRONWOOD       CLOUDY    63  61  94 W9        29.67R
MANITOWISH WTR CLOUDY    64  62  93 W9        29.71R
ARBOR VITAE    CLOUDY    66  62  87 SW12      29.72S
EAGLE RIVER    CLOUDY    65  62  90 SW15G21   29.72R
LAND O LAKES   CLOUDY    64  61  90 SW7       29.73R FOG
RHINELANDER    CLOUDY    68  59  73 W16G24    29.74R
PHILLIPS       CLOUDY    66  60  81 SW12G18   29.72R
ANTIGO         PTSUNNY   69  62  77 W17G28    29.76S
TOMAHAWK       CLOUDY    68  59  72 SW5       29.74S
MERRILL        CLOUDY    69  61  75 W15G21    29.76R
$$

WIZ013-073-252200-
NORTHEAST WISCONSIN

CITY           SKY/WX    TMP DP  RH WIND       PRES   REMARKS
IRON MOUNTAIN  CLOUDY    69  62  78 SW10      29.70R
MARINETTE      PTSUNNY   72  61  68 W13G18    29.72R
OCONTO         PTSUNNY   75  63  66 W13G23    29.73S
$$

WIZ017-030-035>037-045-252200-
CENTRAL WISCONSIN

CITY           SKY/WX    TMP DP  RH WIND       PRES   REMARKS
MEDFORD        CLOUDY    67  59  77 SW14G20   29.77R
WAUSAU         CLOUDY    70  59  68 SW12G28   29.75R
MOSINEE        PTSUNNY   72  63  73 SW13      29.77R
MARSHFIELD     PTSUNNY   74  60  61 SW16G23   29.76R
WISC RAPIDS    PTSUNNY   76  58  53 W15G22    29.78R
STEVENS POINT  PTSUNNY   73  59  61 SW15G24   29.77R
WAUPACA        PTSUNNY   78  61  54 SW14G21   29.77R
SHAWANO        PTSUNNY   77  62  60 SW10G17   29.74S
CLINTONVILLE   PTSUNNY   75  59  57 W14G23    29.75R
$$

WIZ038-039-048-051-252200-
FOX VALLEY

CITY           SKY/WX    TMP DP  RH WIND       PRES   REMARKS
NWS GREEN BAY  PTSUNNY   76  62  62 SW21G28   29.75S
APPLETON       PTSUNNY   75  61  60 SW21G28   29.78R
OSHKOSH        MOSUNNY   75  61  61 SW12G22   29.78R
FOND DU LAC    PTSUNNY   76  61  59 SW15G25   29.81R
$$

WIZ022-050-052-252200-
EAST CENTRAL WISCONSIN

CITY           SKY/WX    TMP DP  RH WIND       PRES   REMARKS
STURGEON BAY   PTSUNNY   73  63  68 SW22G30   29.76S
MANITOWOC      SUNNY     76  61  59 W17G30    29.78S
SHEBOYGAN      SUNNY     76  63  64 SW17G26   29.80R
$$

LMZ563-521-522-541>543-252200-
LAKESHORE

STATION/POSITION TIME  TEMP    WIND        PRES    VSBY  WAVE
                       AIR SEA DIR/SP/G                  HT/PER
                 (UTC) (F)     (DEG/KT/KT) (MB)    (MI)  (FT/S)
SHEBOYGAN LKSHOR 2100          240/ 13/ 15 1009.2R
KEWAUNEE LKSHORE 2000   62     180/ 12/ 15 1006.9R
NORTHPORT PIER   2000   58     140/  7/ 10 1006.4R
N MID LAKE BUOY  2050   43 37  200/ 16/ 17 1007.4R         5/ 6
SISTER BAY LKSHO 2017   69     230/ 17/ 20   N/A
STURGEON BAY CG  2055   51     190/ 10     1008.4      6   2
CHAMBERS ISLAND  2000   66     160/  4/ 12 1006.8R
MENOMINEE LKSHOR 2000   73     220/ 16/ 22 1006.9R
$$



USA.gov is the U.S. government's official web portal to all federal, state and local government web resources and services.